Time,TemperatureF,DewpointF,PressureIn,WindDirection,WindDirectionDegrees,WindSpeedMPH,WindSpeedGustMPH,Humidity,HourlyPrecipIn,Conditions,Clouds,dailyrainin,SoftwareType,DateUTC
2014-04-17 00:12:00,43.2,30.0,30.09,East,86,1.0,4.0,59,0.00,,,0.00,weatherlink.com 1.10,2014-04-17 05:12:00,
2014-04-17 00:27:00,43.5,29.0,30.09,ESE,110,2.0,5.0,58,0.00,,,0.00,weatherlink.com 1.10,2014-04-17 05:27:00,
2014-04-17 00:42:00,43.7,30.0,30.09,SSE,168,2.0,5.0,58,0.00,,,0.00,weatherlink.com 1.10,2014-04-17 05:42:00,
2014-04-17 00:57:00,43.7,30.0,30.09,SE,142,1.0,6.0,58,0.00,,,0.00,weatherlink.com 1.10,2014-04-17 05:57:00,
2014-04-17 01:12:00,43.9,30.0,30.08,SE,131,1.0,6.0,58,0.00,,,0.00,weatherlink.com 1.10,2014-04-17 06:12:00,
2014-04-17 01:27:00,44.1,30.0,30.08,South,180,0.0,6.0,58,0.00,,,0.00,weatherlink.com 1.10,2014-04-17 06:27:00,
2014-04-17 01:42:00,44.2,30.0,30.08,SE,140,3.0,8.0,57,0.00,,,0.00,weatherlink.com 1.10,2014-04-17 06:42:00,
2014-04-17 01:57:00,44.3,30.0,30.06,SSE,155,0.0,7.0,57,0.00,,,0.00,weatherlink.com 1.10,2014-04-17 06:57:00,
2014-04-17 02:12:00,44.3,30.0,30.07,SSE,155,2.0,5.0,57,0.00,,,0.00,weatherlink.com 1.10,2014-04-17 07:12:00,
2014-04-17 02:27:00,44.4,29.0,30.06,SSW,208,1.0,8.0,56,0.00,,,0.00,weatherlink.com 1.10,2014-04-17 07:27:00,
2014-04-17 02:42:00,44.5,29.0,30.05,NE,56,2.0,9.0,56,0.00,,,0.00,weatherlink.com 1.10,2014-04-17 07:42:00,
2014-04-17 02:57:00,44.5,29.0,30.05,SE,129,4.0,7.0,56,0.00,,,0.00,weatherlink.com 1.10,2014-04-17 07:57:00,
2014-04-17 03:12:00,44.7,29.0,30.05,West,277,1.0,14.0,55,0.00,,,0.00,weatherlink.com 1.10,2014-04-17 08:12:00,
2014-04-17 03:27:00,44.7,30.0,30.04,SSE,155,2.0,9.0,56,0.00,,,0.00,weatherlink.com 1.10,2014-04-17 08:27:00,
2014-04-17 03:43:00,44.7,30.0,30.04,East,85,3.0,10.0,56,0.00,,,0.00,weatherlink.com 1.10,2014-04-17 08:43:00,
2014-04-17 03:58:00,44.7,30.0,30.04,West,262,2.0,10.0,56,0.00,,,0.00,weatherlink.com 1.10,2014-04-17 08:58:00,
2014-04-17 04:13:00,44.9,30.0,30.03,NE,56,3.0,9.0,56,0.00,,,0.00,weatherlink.com 1.10,2014-04-17 09:13:00,
2014-04-17 04:28:00,45.2,30.0,30.02,West,274,2.0,15.0,56,0.00,,,0.00,weatherlink.com 1.10,2014-04-17 09:28:00,
2014-04-17 04:43:00,45.1,30.0,30.02,SSW,194,2.0,13.0,56,0.00,,,0.00,weatherlink.com 1.10,2014-04-17 09:43:00,
2014-04-17 04:58:00,45.0,30.0,30.02,SW,232,9.0,15.0,57,0.00,,,0.00,weatherlink.com 1.10,2014-04-17 09:58:00,
2014-04-17 05:13:00,44.7,31.0,30.02,SW,232,4.0,13.0,58,0.00,,,0.00,weatherlink.com 1.10,2014-04-17 10:13:00,
2014-04-17 05:28:00,44.3,31.0,30.02,WSW,237,1.0,11.0,59,0.00,,,0.00,weatherlink.com 1.10,2014-04-17 10:28:00,
2014-04-17 05:43:00,44.1,31.0,30.02,NNE,19,1.0,13.0,60,0.00,,,0.00,weatherlink.com 1.10,2014-04-17 10:43:00,
2014-04-17 05:58:00,43.7,31.0,30.02,South,184,3.0,7.0,62,0.00,,,0.00,weatherlink.com 1.10,2014-04-17 10:58:00,
2014-04-17 06:13:00,43.5,32.0,30.02,WNW,288,2.0,12.0,63,0.00,,,0.00,weatherlink.com 1.10,2014-04-17 11:13:00,
2014-04-17 06:28:00,43.1,32.0,30.02,SSE,158,6.0,9.0,64,0.00,,,0.00,weatherlink.com 1.10,2014-04-17 11:28:00,
2014-04-17 06:43:00,42.7,32.0,30.03,South,172,2.0,11.0,66,0.00,,,0.00,weatherlink.com 1.10,2014-04-17 11:43:00,
2014-04-17 06:58:00,42.6,32.0,30.03,NNW,332,5.0,7.0,67,0.00,,,0.00,weatherlink.com 1.10,2014-04-17 11:58:00,
2014-04-17 07:13:00,43.0,33.0,30.05,SW,226,2.0,9.0,67,0.00,,,0.00,weatherlink.com 1.10,2014-04-17 12:13:00,
2014-04-17 07:28:00,43.0,33.0,30.05,South,184,1.0,7.0,68,0.00,,,0.00,weatherlink.com 1.10,2014-04-17 12:28:00,
2014-04-17 07:43:00,43.1,33.0,30.05,SSE,158,3.0,9.0,68,0.00,,,0.00,weatherlink.com 1.10,2014-04-17 12:43:00,
2014-04-17 07:58:00,43.4,33.0,30.05,SSE,167,6.0,11.0,68,0.00,,,0.00,weatherlink.com 1.10,2014-04-17 12:58:00,
2014-04-17 08:13:00,43.9,34.0,30.06,West,270,1.0,6.0,68,0.00,,,0.00,weatherlink.com 1.10,2014-04-17 13:13:00,
2014-04-17 08:28:00,44.2,35.0,30.07,South,175,3.0,7.0,69,0.00,,,0.00,weatherlink.com 1.10,2014-04-17 13:28:00,
2014-04-17 08:43:00,45.0,36.0,30.07,SW,215,4.0,11.0,70,0.00,,,0.00,weatherlink.com 1.10,2014-04-17 13:43:00,
2014-04-17 08:58:00,45.4,36.0,30.07,SW,236,2.0,7.0,70,0.00,,,0.00,weatherlink.com 1.10,2014-04-17 13:58:00,
2014-04-17 09:13:00,45.7,37.0,30.08,West,271,1.0,10.0,71,0.00,,,0.00,weatherlink.com 1.10,2014-04-17 14:13:00,
2014-04-17 09:28:00,46.2,38.0,30.08,WSW,256,2.0,8.0,72,0.00,,,0.00,weatherlink.com 1.10,2014-04-17 14:28:00,
2014-04-17 09:43:00,46.2,38.0,30.09,WSW,257,3.0,9.0,72,0.00,,,0.00,weatherlink.com 1.10,2014-04-17 14:43:00,